Madison, MN

12:21 PM CDT on October 20, 2019 (GMT -0500)
Madison-Lac Qui Parle County

Weather History for KDXX - August, 2019

Change the Weather History Date:

Friday, August 16, 2019

  Actual Average (WUND) Record (WUND)
Temperature  
Mean Temperature 70 °F -  
Max Temperature 82 °F - - (-1)
Min Temperature 57 °F - - (-1)
Cooling Degree Days 4    
Growing Degree Days 20 (Base 50)    
Moisture  
Dew Point 60 °F    
Average Humidity 73    
Maximum Humidity 100    
Minimum Humidity 37    
Precipitation  
Precipitation 0.01 in - - ()
Sea Level Pressure  
Sea Level Pressure 29.85 in    
Wind  
Wind Speed 6 mph (WSW)    
Max Wind Speed 9 mph    
Max Gust Speed -    
Visibility 10 miles    
Events Rain    
Averages and records for this station are not official NWS values.
T = Trace of Precipitation, MM = Missing Value Source: NWS Daily Summary

Daily Weather History Graph

Daily Weather History Graph

Search for Another Location

Airport or City:

Astronomy

Aug. 16, 2019 Rise Set
Actual Time 6:27 AM CDT 8:29 PM CDT
Civil Twilight 5:55 AM CDT 9:01 PM CDT
Nautical Twilight 5:16 AM CDT 9:40 PM CDT
Astronomical Twilight 4:33 AM CDT 10:23 PM CDT
Moon 9:27 PM CDT (8/16) 7:20 AM CDT (8/16)
Length of Visible Light 15h 05m
Length of Day
14h 02m
Full, 99% of the Moon is Illuminated
Aug 16
Full
Aug 23
Last Quarter
Aug 30
New
Sep 5
First Quarter
Sep 13
Full

Hourly Weather History & Observations

Time (CDT) Temp. Heat Index Dew Point Humidity Pressure Visibility Wind Dir Wind Speed Gust Speed Precip Events Conditions
12:15 AM 62.6 °F - 62.6 °F 100% 29.83 in 10.0 mi West 6.9 mph - N/A   Clear
12:19 AM 62.6 °F - 62.6 °F 100% 29.84 in 10.0 mi West 8.1 mph - 0.01 in   Scattered Clouds
12:38 AM 64.4 °F - 62.6 °F 94% 29.83 in 10.0 mi WNW 9.2 mph - 0.01 in   Mostly Cloudy
12:55 AM 64.4 °F - 62.6 °F 94% 29.83 in 10.0 mi WNW 9.2 mph - 0.01 in   Overcast
1:15 AM 64.4 °F - 62.6 °F 94% 29.84 in 10.0 mi WNW 8.1 mph - N/A   Overcast
1:16 AM 64.4 °F - 62.6 °F 94% 29.84 in 10.0 mi NW 6.9 mph - N/A   Overcast
1:35 AM 64.4 °F - 62.6 °F 94% 29.84 in 10.0 mi WNW 5.8 mph - N/A   Overcast
1:58 AM 62.6 °F - 60.8 °F 94% 29.84 in 10.0 mi West 4.6 mph - N/A   Scattered Clouds
2:17 AM 60.8 °F - 60.8 °F 100% 29.84 in 10.0 mi West 5.8 mph - N/A   Clear
2:35 AM 60.8 °F - 60.8 °F 100% 29.84 in 10.0 mi West 4.6 mph - N/A   Clear
2:55 AM 60.8 °F - 60.8 °F 100% 29.84 in 10.0 mi West 5.8 mph - N/A   Clear
2:56 AM 60.8 °F - 60.8 °F 100% 29.84 in 10.0 mi West 5.8 mph - N/A   Clear
3:15 AM 60.8 °F - 60.8 °F 100% 29.84 in 10.0 mi West 6.9 mph - N/A   Clear
3:37 AM 60.8 °F - 59.0 °F 94% 29.84 in 10.0 mi WNW 5.8 mph - N/A   Clear
3:55 AM 60.8 °F - 59.0 °F 94% 29.84 in 10.0 mi West 6.9 mph - N/A   Clear
4:15 AM 59.0 °F - 57.2 °F 94% 29.84 in 10.0 mi WNW 4.6 mph - N/A   Clear
4:16 AM 59.0 °F - 57.2 °F 94% 29.83 in 10.0 mi WNW 4.6 mph - N/A   Clear
4:35 AM 59.0 °F - 57.2 °F 94% 29.85 in 10.0 mi WSW 4.6 mph - N/A   Clear
4:36 AM 59.0 °F - 57.2 °F 94% 29.85 in 10.0 mi WSW 5.8 mph - N/A   Clear
4:59 AM 60.8 °F - 57.2 °F 88% 29.85 in 10.0 mi West 5.8 mph - N/A   Clear
5:16 AM 60.8 °F - 57.2 °F 88% 29.85 in 10.0 mi WSW 4.6 mph - N/A   Clear
5:36 AM 60.8 °F - 57.2 °F 88% 29.85 in 10.0 mi West 4.6 mph - N/A   Clear
5:55 AM 60.8 °F - 57.2 °F 88% 29.85 in 10.0 mi West 5.8 mph - N/A   Clear
5:56 AM 60.8 °F - 57.2 °F 88% 29.85 in 10.0 mi West 5.8 mph - N/A   Clear
6:15 AM 59.0 °F - 57.2 °F 94% 29.85 in 10.0 mi West 4.6 mph - N/A   Clear
6:20 AM 59.0 °F - 57.2 °F 94% 29.85 in 10.0 mi West 4.6 mph - N/A   Clear
6:38 AM 59.0 °F - 57.2 °F 94% 29.85 in 10.0 mi West 5.8 mph - N/A   Clear
6:55 AM 57.2 °F - 57.2 °F 100% 29.85 in 10.0 mi West 3.5 mph - N/A   Clear
7:15 AM 60.8 °F - 59.0 °F 94% 29.86 in 10.0 mi WSW 4.6 mph - N/A   Clear
7:16 AM 60.8 °F - 59.0 °F 94% 29.86 in 10.0 mi WSW 3.5 mph - N/A   Clear
7:35 AM 60.8 °F - 59.0 °F 94% 29.86 in 10.0 mi Calm Calm - N/A   Clear
7:36 AM 60.8 °F - 59.0 °F 94% 29.86 in 10.0 mi Calm Calm - N/A   Clear
7:59 AM 62.6 °F - 60.8 °F 94% 29.86 in 10.0 mi West 4.6 mph - N/A   Clear
8:16 AM 64.4 °F - 62.6 °F 94% 29.86 in 10.0 mi West 4.6 mph - N/A   Clear
8:35 AM 66.2 °F - 62.6 °F 88% 29.86 in 10.0 mi WSW 4.6 mph - N/A   Clear
8:55 AM 66.2 °F - 62.6 °F 88% 29.87 in 10.0 mi West 4.6 mph - N/A   Clear
8:56 AM 68.0 °F - 62.6 °F 83% 29.87 in 10.0 mi West 4.6 mph - N/A   Clear
9:15 AM 68.0 °F - 62.6 °F 83% 29.87 in 10.0 mi SW 5.8 mph - N/A   Clear
9:20 AM 69.8 °F - 62.6 °F 78% 29.87 in 10.0 mi WSW 4.6 mph - N/A   Clear
9:37 AM 69.8 °F - 62.6 °F 78% 29.87 in 10.0 mi West 5.8 mph - N/A   Clear
9:55 AM 71.6 °F - 62.6 °F 73% 29.88 in 10.0 mi WSW 9.2 mph - N/A   Clear
10:15 AM 73.4 °F - 62.6 °F 69% 29.88 in 10.0 mi West 6.9 mph - N/A   Clear
10:16 AM 73.4 °F - 62.6 °F 69% 29.88 in 10.0 mi West 6.9 mph - N/A   Clear
10:35 AM 73.4 °F - 62.6 °F 69% 29.88 in 10.0 mi West 5.8 mph - N/A   Clear
10:36 AM 73.4 °F - 62.6 °F 69% 29.88 in 10.0 mi WSW 6.9 mph - N/A   Clear
10:59 AM 75.2 °F - 62.6 °F 65% 29.88 in 10.0 mi West 6.9 mph - N/A   Clear
11:16 AM 77.0 °F - 62.6 °F 61% 29.87 in 10.0 mi West 6.9 mph - N/A   Clear
11:36 AM 77.0 °F - 62.6 °F 61% 29.87 in 10.0 mi WNW 8.1 mph - N/A   Clear
11:55 AM 78.8 °F - 62.6 °F 57% 29.87 in 10.0 mi West 6.9 mph - N/A   Clear
12:15 PM 78.8 °F - 62.6 °F 57% 29.87 in 10.0 mi WNW 8.1 mph - N/A   Clear
12:37 PM 80.6 °F 81.5 °F 60.8 °F 51% 29.87 in 10.0 mi West 9.2 mph - N/A   Clear
12:56 PM 80.6 °F 81.5 °F 60.8 °F 51% 29.86 in 10.0 mi West 8.1 mph - N/A   Clear
1:15 PM 80.6 °F 81.5 °F 60.8 °F 51% 29.86 in 10.0 mi West 9.2 mph - N/A   Clear
1:16 PM 80.6 °F 81.1 °F 59.0 °F 48% 29.86 in 10.0 mi West 8.1 mph - N/A   Clear
1:35 PM 80.6 °F 81.5 °F 60.8 °F 51% 29.86 in 10.0 mi West 6.9 mph - N/A   Clear
1:36 PM 80.6 °F 81.5 °F 60.8 °F 51% 29.86 in 10.0 mi WNW 6.9 mph - N/A   Clear
1:59 PM 82.4 °F 82.5 °F 59.0 °F 45% 29.85 in 10.0 mi West 9.2 mph - N/A   Clear
2:16 PM 82.4 °F 82.5 °F 59.0 °F 45% 29.85 in 10.0 mi West 8.1 mph - N/A   Scattered Clouds
2:35 PM 82.4 °F 82.0 °F 57.2 °F 42% 29.85 in 10.0 mi WSW 9.2 mph - N/A   Clear
2:36 PM 82.4 °F 82.0 °F 57.2 °F 42% 29.85 in 10.0 mi WSW 9.2 mph - N/A   Clear
2:55 PM 82.4 °F 82.0 °F 57.2 °F 42% 29.85 in 10.0 mi West 8.1 mph - N/A   Clear
2:56 PM 82.4 °F 82.0 °F 57.2 °F 42% 29.85 in 10.0 mi WNW 6.9 mph - N/A   Clear
3:15 PM 82.4 °F 81.7 °F 55.4 °F 39% 29.85 in 10.0 mi West 9.2 mph - N/A   Clear
3:19 PM 82.4 °F 82.0 °F 57.2 °F 42% 29.85 in 10.0 mi West 6.9 mph - N/A   Clear
3:38 PM 82.4 °F 81.7 °F 55.4 °F 39% 29.84 in 10.0 mi WSW 6.9 mph - N/A   Clear
3:55 PM 82.4 °F 81.4 °F 53.6 °F 37% 29.84 in 10.0 mi WSW 6.9 mph - N/A   Clear
4:15 PM 82.4 °F 82.9 °F 60.8 °F 48% 29.84 in 10.0 mi WSW 6.9 mph - N/A   Clear
4:16 PM 82.4 °F 82.9 °F 60.8 °F 48% 29.84 in 10.0 mi WSW 6.9 mph - N/A   Clear
4:35 PM 82.4 °F 82.0 °F 57.2 °F 42% 29.83 in 10.0 mi WSW 6.9 mph - N/A   Clear
4:36 PM 82.4 °F 82.0 °F 57.2 °F 42% 29.83 in 10.0 mi WSW 5.8 mph - N/A   Clear
4:58 PM 82.4 °F 81.7 °F 55.4 °F 39% 29.83 in 10.0 mi West 8.1 mph - N/A   Clear
5:17 PM 82.4 °F 82.0 °F 57.2 °F 42% 29.83 in 10.0 mi West 5.8 mph - N/A   Clear
5:36 PM 80.6 °F 80.8 °F 57.2 °F 45% 29.83 in 10.0 mi SW 6.9 mph - N/A   Clear
5:55 PM 80.6 °F 80.8 °F 57.2 °F 45% 29.83 in 10.0 mi WSW 6.9 mph - N/A   Clear
5:56 PM 80.6 °F 80.8 °F 57.2 °F 45% 29.83 in 10.0 mi SW 5.8 mph - N/A   Clear
6:15 PM 80.6 °F 81.1 °F 59.0 °F 48% 29.82 in 10.0 mi WSW 6.9 mph - N/A   Clear
6:20 PM 80.6 °F 81.1 °F 59.0 °F 48% 29.82 in 10.0 mi SW 5.8 mph - N/A   Clear
6:37 PM 80.6 °F 81.5 °F 60.8 °F 51% 29.82 in 10.0 mi WSW 5.8 mph - N/A   Clear
6:55 PM 78.8 °F - 60.8 °F 54% 29.82 in 10.0 mi SW 5.8 mph - N/A   Clear
7:15 PM 78.8 °F - 62.6 °F 57% 29.82 in 10.0 mi SW 3.5 mph - N/A   Clear
7:16 PM 78.8 °F - 62.6 °F 57% 29.82 in 10.0 mi SW 3.5 mph - N/A   Clear
7:35 PM 77.0 °F - 62.6 °F 61% 29.82 in 10.0 mi Calm Calm - N/A Rain Light Rain
7:36 PM 77.0 °F - 62.6 °F 61% 29.82 in 10.0 mi SW 3.5 mph - N/A Rain Light Rain
7:59 PM 75.2 °F - 62.6 °F 65% 29.82 in 10.0 mi SSW 3.5 mph - N/A   Clear
8:16 PM 73.4 °F - 64.4 °F 73% 29.82 in 10.0 mi South 3.5 mph - N/A   Clear
8:36 PM 73.4 °F - 62.6 °F 69% 29.82 in 10.0 mi South 3.5 mph - N/A   Clear
8:55 PM 71.6 °F - 62.6 °F 73% 29.82 in 10.0 mi South 3.5 mph - N/A   Clear
8:56 PM 71.6 °F - 62.6 °F 73% 29.82 in 10.0 mi South 3.5 mph - N/A   Clear
9:19 PM 69.8 °F - 62.6 °F 78% 29.82 in 10.0 mi South 4.6 mph - N/A   Clear
9:37 PM 69.8 °F - 62.6 °F 78% 29.83 in 10.0 mi SSE 4.6 mph - N/A   Clear
9:56 PM 68.0 °F - 62.6 °F 83% 29.83 in 10.0 mi South 4.6 mph - N/A   Scattered Clouds
10:15 PM 68.0 °F - 62.6 °F 83% 29.83 in 10.0 mi South 4.6 mph - N/A   Scattered Clouds
10:16 PM 68.0 °F - 62.6 °F 83% 29.83 in 10.0 mi South 4.6 mph - N/A   Scattered Clouds
10:35 PM 66.2 °F - 64.4 °F 94% 29.83 in 10.0 mi South 4.6 mph - N/A   Clear
10:36 PM 66.2 °F - 64.4 °F 94% 29.83 in 10.0 mi South 4.6 mph - N/A   Clear
10:58 PM 66.2 °F - 62.6 °F 88% 29.84 in 10.0 mi Calm Calm - N/A   Scattered Clouds
11:16 PM 68.0 °F - 62.6 °F 83% 29.84 in 10.0 mi South 4.6 mph - N/A   Scattered Clouds
11:35 PM 66.2 °F - 64.4 °F 94% 29.84 in 10.0 mi South 4.6 mph - N/A   Scattered Clouds
11:55 PM 66.2 °F - 64.4 °F 94% 29.84 in 10.0 mi South 3.5 mph - N/A   Clear